DELTA 1 DEB, 9977

Orbit data source: Space-Track

DELTA 1 DEB, 9977 is space debris in SSO originally from a launch on Tue, 06 Nov 1973 UTC launched from the Air Force Western Test Range (AFWTR). Debris objects in space refer to the collection of defunct objects orbiting the Earth. Examples of debris include non-operational satellites, rocket bodies, and fragments generated from explosions, collisions, or faulty payload assembly.

Loading next visibility...
Identifier
9977, 1973-086GG
Orbit
SSO
Country
Flag of USUS
Related business
Manufacturer
Unknown
Mission
Spacecraft
Bus & Motor
Unknown
Mass
Unknown
Launch date (UTC)
1973-11-06 (52 years ago)
Launch vehicle
Unknown
Launch site
Air Force Western Test Range (AFWTR)
Object type
Payload
Rocket body
Debris
Shape & HBR
Unknown shape, 0.1 m
Radar Cross Section
Small (<0.1 m²)

Expand to show TLE details & history
Last TLE update: 10 hours ago

TLE from 10 hours ago
0 DELTA 1 DEB
1  9977U 73086GG  25294.72819596  .00000472  00000-0  31912-2 0  9996
2  9977 101.8927  16.1476 0073635 281.2350 234.6775 12.54210194293650
Epoch: 2025-10-21T17:28Z
TLE epoch observation values (Epoch: 2025-10-21T17:28:36.130Z)
Latitude
24.23108°
Longitude
-91.00271°
Altitude
1,483.163 km
Speed
7.109 km/s
True Right ascension
13h 26m 14s
True Declination
24° 06' 52"
Sunlit
Object was in daylight at epoch
Visualization orbit readout
Latitude
Unknown
Longitude
Unknown
Altitude
Unknown
Speed
Unknown
Apparent Right ascension
Unknown
Apparent Declination
Unknown
Sunlit
N/A
Visualization observer readout
Local Sidereal Time
22:03:28
Azimuth
Unknown
Elevation
Unknown
Doppler factor
Unknown
Orbital elements
Apogee altitude
1,502.086 km
Perigee altitude
1,386.882 km
Semi-major axis
7,822.621 km
Eccentricity
0.00736
Inclination
101.8927°
RAAN
16.1476°
Arg. of periapsis
281.235°
True anomaly
233.9927°
Mean anomaly
234.6775°
Eccentric anomaly
234.33473°
Mean motion
3.137 °/min
Orbital period
114.76 mins
BSTAR
0.0031912
Loading maneuver chart data...
Computing Atmospheric mass density...
Loading historical data...
Loading historical data...
Loading historical data...
Loading historical data...
Loading historical data...
Loading historical data...
Loading historical data...

Documentation

Showing up to 5 results
|